timestamp,wind_dir_avg,wind_spd_avg,wind_spd_max_dir,wind_spd_gust,battery_voltage,lat,long
2021-05-28 00:04:01+00:00,211.0,7.31,214.0,8.4,12.81,47.59359,-54.27349
2021-05-28 00:14:01+00:00,216.0,7.05,218.0,7.7,12.57,47.59359,-54.27349
2021-05-28 00:24:01+00:00,215.0,6.11,216.0,6.65,12.57,47.59359,-54.27349
2021-05-28 00:34:01+00:00,215.0,8.1,216.0,8.79,12.57,47.59359,-54.27349
2021-05-28 00:44:01+00:00,214.0,7.67,214.0,8.29,12.57,47.59359,-54.27349
2021-05-28 00:54:01+00:00,202.0,6.58,206.0,7.39,12.57,47.59359,-54.27349
2021-05-28 01:04:01+00:00,204.0,6.3,210.0,7.08,12.57,47.59359,-54.27349
2021-05-28 01:14:01+00:00,210.0,5.47,210.0,6.1,12.57,47.59359,-54.27349
2021-05-28 01:24:01+00:00,207.0,5.15,210.0,5.92,12.57,47.59359,-54.27349
2021-05-28 01:34:01+00:00,211.0,6.09,211.0,6.72,12.57,47.59359,-54.27349
2021-05-28 01:44:01+00:00,213.0,7.45,214.0,8.26,12.57,47.59359,-54.27349
2021-05-28 01:54:01+00:00,211.0,7.1,209.0,8.06,12.57,47.59359,-54.27349
2021-05-28 02:04:01+00:00,209.0,6.88,210.0,7.79,12.57,47.59359,-54.27349
2021-05-28 02:14:01+00:00,211.0,7.69,211.0,8.64,12.57,47.59359,-54.27349
2021-05-28 02:24:01+00:00,211.0,8.47,213.0,9.46,12.57,47.59359,-54.27349
2021-05-28 02:34:01+00:00,206.0,7.87,208.0,9.03,12.57,47.59359,-54.27349
2021-05-28 02:44:01+00:00,214.0,6.75,215.0,7.25,12.57,47.59359,-54.27349
2021-05-28 02:54:01+00:00,211.0,6.03,215.0,6.48,12.57,47.59359,-54.27349
2021-05-28 03:04:01+00:00,210.0,5.44,212.0,5.88,12.57,47.59359,-54.27349
2021-05-28 03:14:00+00:00,202.0,4.68,206.0,5.16,12.57,47.59359,-54.27349
2021-05-28 03:24:00+00:00,205.0,4.59,206.0,5.18,12.57,47.59359,-54.27349
2021-05-28 03:34:00+00:00,209.0,5.42,214.0,5.96,12.57,47.59359,-54.27349
2021-05-28 03:44:00+00:00,210.0,5.51,212.0,6.13,12.57,47.59359,-54.27349
2021-05-28 03:54:00+00:00,201.0,4.6,200.0,5.55,12.57,47.59359,-54.27349
2021-05-28 04:04:00+00:00,221.0,1.56,226.0,1.94,12.57,47.59359,-54.27349
2021-05-28 04:14:00+00:00,195.0,1.19,204.0,1.59,12.49,47.59359,-54.27349
2021-05-28 04:24:00+00:00,246.0,2.46,275.0,3.4,12.49,47.59359,-54.27349
2021-05-28 04:34:00+00:00,272.0,3.18,270.0,3.67,12.49,47.59359,-54.27349
2021-05-28 04:44:00+00:00,304.0,4.0,315.0,5.1,12.49,47.59359,-54.27349
2021-05-28 04:54:00+00:00,293.0,3.89,305.0,5.26,12.49,47.59359,-54.27349
2021-05-28 05:04:00+00:00,286.0,3.25,272.0,3.59,12.49,47.59359,-54.27349
2021-05-28 05:14:00+00:00,265.0,3.18,270.0,3.83,12.49,47.59359,-54.27349
2021-05-28 05:24:00+00:00,309.0,3.85,308.0,4.48,12.49,47.59359,-54.27349
2021-05-28 05:34:00+00:00,284.0,4.53,299.0,6.76,12.49,47.59359,-54.27349
2021-05-28 05:44:00+00:00,304.0,2.95,293.0,4.5,12.49,47.59359,-54.27349
2021-05-28 05:54:00+00:00,286.0,4.22,289.0,5.61,12.49,47.59359,-54.27349
2021-05-28 06:04:00+00:00,324.0,4.74,323.0,6.2,12.49,47.59359,-54.27349
2021-05-28 06:14:00+00:00,311.0,4.32,316.0,4.78,12.49,47.59359,-54.27349
2021-05-28 06:24:00+00:00,283.0,3.83,283.0,4.45,12.49,47.59359,-54.27349
2021-05-28 06:34:00+00:00,293.0,1.82,284.0,2.59,12.49,47.59359,-54.27349
2021-05-28 06:44:00+00:00,265.0,4.2,261.0,4.85,12.49,47.59359,-54.27349
2021-05-28 06:54:00+00:00,282.0,4.42,270.0,6.28,12.49,47.59359,-54.27349
2021-05-28 07:04:00+00:00,304.0,4.48,301.0,5.37,12.49,47.59359,-54.27349
2021-05-28 07:14:00+00:00,288.0,2.34,291.0,3.13,12.41,47.59359,-54.27349
2021-05-28 07:24:00+00:00,266.0,1.46,284.0,1.81,12.41,47.59359,-54.27349
2021-05-28 07:34:00+00:00,258.0,2.48,261.0,3.0,12.41,47.59359,-54.27349
2021-05-28 07:44:00+00:00,272.0,3.64,273.0,4.13,12.41,47.59359,-54.27349
2021-05-28 07:54:00+00:00,283.0,4.04,286.0,4.83,12.41,47.59359,-54.27349
2021-05-28 08:04:00+00:00,283.0,4.17,284.0,4.51,12.41,47.59359,-54.27349
2021-05-28 08:14:00+00:00,284.0,5.81,280.0,6.54,12.41,47.59359,-54.27349
2021-05-28 08:24:00+00:00,281.0,5.24,278.0,6.23,12.41,47.59359,-54.27349
2021-05-28 08:34:00+00:00,271.0,5.08,268.0,5.55,12.41,47.59359,-54.27349
2021-05-28 08:44:00+00:00,274.0,6.4,275.0,8.47,12.41,47.59359,-54.27349
2021-05-28 08:54:00+00:00,272.0,6.87,275.0,8.14,12.41,47.59359,-54.27349
2021-05-28 09:04:00+00:00,274.0,7.16,274.0,8.12,12.41,47.59359,-54.27349
2021-05-28 09:14:01+00:00,266.0,6.36,273.0,7.01,12.49,47.59359,-54.27349
2021-05-28 09:24:01+00:00,263.0,6.47,261.0,7.2,12.49,47.59359,-54.27349
2021-05-28 09:34:01+00:00,253.0,5.8,258.0,7.28,12.49,47.59359,-54.27349
2021-05-28 09:44:01+00:00,256.0,5.68,260.0,8.38,12.49,47.59359,-54.27349
2021-05-28 09:54:01+00:00,259.0,6.36,251.0,7.99,12.49,47.59359,-54.27349
2021-05-28 10:04:01+00:00,262.0,5.04,263.0,5.85,12.49,47.59359,-54.27349
2021-05-28 10:14:01+00:00,264.0,5.99,259.0,6.69,13.37,47.59359,-54.27349
2021-05-28 10:24:01+00:00,262.0,5.64,259.0,6.35,13.37,47.59359,-54.27349
2021-05-28 10:34:01+00:00,261.0,6.08,262.0,6.63,13.37,47.59359,-54.27349
2021-05-28 10:44:01+00:00,262.0,6.71,264.0,7.34,13.37,47.59359,-54.27349
2021-05-28 10:54:01+00:00,262.0,7.49,257.0,8.71,13.37,47.59359,-54.27349
2021-05-28 11:04:01+00:00,264.0,7.95,262.0,8.89,13.37,47.59359,-54.27349
2021-05-28 11:14:01+00:00,270.0,6.42,273.0,7.08,13.84,47.59359,-54.27349
2021-05-28 11:24:01+00:00,272.0,6.25,277.0,7.08,13.84,47.59359,-54.27349
2021-05-28 11:34:01+00:00,267.0,7.09,267.0,7.44,13.84,47.59359,-54.27349
2021-05-28 11:44:01+00:00,265.0,6.49,270.0,7.47,13.84,47.59359,-54.27349
2021-05-28 11:54:01+00:00,268.0,7.1,268.0,8.3,13.84,47.59359,-54.27349
2021-05-28 12:04:01+00:00,259.0,6.73,265.0,7.34,13.84,47.59359,-54.27349
2021-05-28 12:14:01+00:00,256.0,6.53,258.0,7.37,13.84,47.59359,-54.27349
2021-05-28 12:24:01+00:00,257.0,6.86,255.0,7.43,13.84,47.59359,-54.27349
2021-05-28 12:34:01+00:00,257.0,6.38,257.0,7.14,13.84,47.59359,-54.27349
2021-05-28 12:44:01+00:00,274.0,6.24,272.0,6.92,13.84,47.59359,-54.27349
2021-05-28 12:54:01+00:00,267.0,7.73,263.0,8.4,13.84,47.59359,-54.27349
2021-05-28 13:04:01+00:00,269.0,7.3,274.0,8.29,13.84,47.59359,-54.27349
2021-05-28 13:14:01+00:00,259.0,7.49,260.0,8.18,14.08,47.59359,-54.27349
2021-05-28 13:24:01+00:00,261.0,7.68,255.0,10.82,14.08,47.59359,-54.27349
2021-05-28 13:34:01+00:00,263.0,7.67,259.0,8.66,14.08,47.59359,-54.27349
2021-05-28 13:44:01+00:00,263.0,6.98,265.0,7.86,14.08,47.59359,-54.27349
2021-05-28 13:54:01+00:00,264.0,8.02,259.0,9.87,14.08,47.59359,-54.27349
2021-05-28 14:04:01+00:00,277.0,9.46,271.0,14.21,14.08,47.59359,-54.27349
2021-05-28 14:14:01+00:00,264.0,8.49,265.0,13.45,14.24,47.59359,-54.27349
2021-05-28 14:24:01+00:00,268.0,6.67,268.0,7.46,14.24,47.59359,-54.27349
2021-05-28 14:34:01+00:00,251.0,7.18,249.0,7.92,14.24,47.59359,-54.27349
2021-05-28 14:44:01+00:00,246.0,8.19,245.0,9.05,14.24,47.59359,-54.27349
2021-05-28 14:54:01+00:00,251.0,7.7,254.0,9.11,14.24,47.59359,-54.27349
2021-05-28 15:04:01+00:00,252.0,7.55,252.0,8.3,14.24,47.59359,-54.27349
2021-05-28 15:14:01+00:00,271.0,7.72,269.0,8.57,14.16,47.59359,-54.27349
2021-05-28 15:24:01+00:00,253.0,7.22,248.0,8.18,14.16,47.59359,-54.27349
2021-05-28 15:34:01+00:00,276.0,6.2,285.0,7.01,14.16,47.59359,-54.27349
2021-05-28 15:44:01+00:00,270.0,8.65,270.0,13.92,14.16,47.59359,-54.27349
2021-05-28 15:54:01+00:00,266.0,8.08,264.0,8.92,14.16,47.59359,-54.27349
2021-05-28 16:04:01+00:00,255.0,8.7,253.0,9.34,14.16,47.59359,-54.27349
2021-05-28 16:14:01+00:00,277.0,7.67,276.0,8.98,13.68,47.59359,-54.27349
2021-05-28 16:24:01+00:00,264.0,6.5,276.0,7.57,13.68,47.59359,-54.27349
2021-05-28 16:34:01+00:00,275.0,8.36,277.0,9.38,13.68,47.59359,-54.27349
2021-05-28 16:44:01+00:00,250.0,10.95,263.0,14.56,13.68,47.59359,-54.27349
2021-05-28 16:54:01+00:00,253.0,11.31,260.0,14.73,13.68,47.59359,-54.27349
2021-05-28 17:04:01+00:00,257.0,12.69,256.0,14.94,13.68,47.59359,-54.27349
2021-05-28 17:14:01+00:00,247.0,9.34,248.0,10.9,14.16,47.59359,-54.27349
2021-05-28 17:24:01+00:00,242.0,10.87,251.0,12.88,14.16,47.59359,-54.27349
2021-05-28 17:34:01+00:00,247.0,10.69,251.0,12.95,14.16,47.59359,-54.27349
2021-05-28 17:44:01+00:00,261.0,9.9,262.0,13.85,14.16,47.59359,-54.27349
2021-05-28 17:54:01+00:00,248.0,13.03,251.0,14.8,14.16,47.59359,-54.27349
2021-05-28 18:04:01+00:00,261.0,11.58,260.0,14.73,14.16,47.59359,-54.27349
2021-05-28 18:14:01+00:00,255.0,12.53,258.0,14.74,13.84,47.59359,-54.27349
2021-05-28 18:24:01+00:00,251.0,13.06,255.0,15.01,13.84,47.59359,-54.27349
2021-05-28 18:34:01+00:00,257.0,12.67,261.0,14.31,13.84,47.59359,-54.27349
2021-05-28 18:44:01+00:00,259.0,12.78,258.0,14.65,13.84,47.59359,-54.27349
2021-05-28 18:54:01+00:00,254.0,13.02,259.0,14.61,13.84,47.59359,-54.27349
2021-05-28 19:04:01+00:00,262.0,12.62,266.0,14.39,13.84,47.59359,-54.27349
2021-05-28 19:14:01+00:00,268.0,12.76,267.0,14.6,13.84,47.59359,-54.27349
2021-05-28 19:24:01+00:00,266.0,13.11,267.0,14.65,13.84,47.59359,-54.27349
2021-05-28 19:34:01+00:00,273.0,12.98,270.0,15.95,13.84,47.59359,-54.27349
2021-05-28 19:44:01+00:00,274.0,14.3,274.0,16.9,13.84,47.59359,-54.27349
2021-05-28 19:54:01+00:00,269.0,12.83,280.0,14.6,13.84,47.59359,-54.27349
2021-05-28 20:04:01+00:00,271.0,14.08,267.0,16.27,13.84,47.59359,-54.27349
2021-05-28 20:14:01+00:00,279.0,14.47,276.0,16.08,13.76,47.59359,-54.27349
2021-05-28 20:24:01+00:00,262.0,13.59,265.0,15.62,13.76,47.59359,-54.27349
2021-05-28 20:34:01+00:00,273.0,12.76,274.0,14.59,13.76,47.59359,-54.27349
2021-05-28 20:44:01+00:00,265.0,13.21,269.0,14.99,13.76,47.59359,-54.27349
2021-05-28 20:54:01+00:00,274.0,13.46,271.0,15.66,13.76,47.59359,-54.27349
2021-05-28 21:04:01+00:00,265.0,13.62,263.0,15.31,13.76,47.59359,-54.27349
2021-05-28 21:14:01+00:00,270.0,12.77,268.0,14.45,13.84,47.59359,-54.27349
2021-05-28 21:24:01+00:00,280.0,13.58,281.0,15.47,13.84,47.59359,-54.27349
2021-05-28 21:34:01+00:00,266.0,13.16,267.0,15.1,13.84,47.59359,-54.27349
2021-05-28 21:44:01+00:00,265.0,13.8,266.0,15.56,13.84,47.59359,-54.27349
2021-05-28 21:54:01+00:00,273.0,13.58,283.0,16.41,13.84,47.59359,-54.27349
2021-05-28 22:04:01+00:00,265.0,11.8,264.0,13.82,13.84,47.59359,-54.27349
2021-05-28 22:14:01+00:00,268.0,12.17,276.0,14.22,13.6,47.59359,-54.27349
2021-05-28 22:24:01+00:00,265.0,11.75,272.0,14.31,13.6,47.59359,-54.27349
2021-05-28 22:34:01+00:00,268.0,13.16,272.0,14.76,13.6,47.59359,-54.27349
2021-05-28 22:44:01+00:00,256.0,12.53,259.0,14.38,13.6,47.59359,-54.27349
2021-05-28 22:54:01+00:00,260.0,12.52,263.0,14.54,13.6,47.59359,-54.27349
2021-05-28 23:04:01+00:00,252.0,11.82,253.0,15.03,13.6,47.59359,-54.27349
2021-05-28 23:14:00+00:00,257.0,12.68,257.0,14.3,13.21,47.59359,-54.27349
2021-05-28 23:24:00+00:00,257.0,9.59,260.0,13.9,13.21,47.59359,-54.27349
2021-05-28 23:34:00+00:00,260.0,11.92,259.0,14.44,13.21,47.59359,-54.27349
2021-05-28 23:44:00+00:00,257.0,11.17,262.0,14.5,13.21,47.59359,-54.27349
2021-05-28 23:54:00+00:00,256.0,9.91,262.0,14.23,13.21,47.59359,-54.27349
